Tracking 29059 objects as of 18-Jun-2024
HD Live streaming from Space Station
objects crossing your sky now

ONEWEB-0624

Track ONEWEB-0624 now!
10-day predictions
ONEWEB-0624 is classified as:


NORAD ID: 55165
Int'l Code: 2023-004AB
Perigee: 1,219.4 km
Apogee: 1,222.3 km
Inclination: 87.9 °
Period: 109.7 minutes
Semi major axis: 7591 km
RCS: Unknown
Launch date: January 10, 2023
Source: United Kingdom (UK)
Launch site: AIR FORCE WESTERN TEST RANGE (AFWTR)
Your satellite tracking list
Your tracking list is empty




NASA's NSSDC Master Catalog

Two Line Element Set (TLE):
1 55165U 23004AB  24169.91005822  .00000191  00000-0  49667-3 0  9996
2 55165  87.8945 135.8569 0001894  88.6779 271.4566 13.12442467 72395
Source of the keplerian elements: AFSPC